Theta_e
309 308 306 305 304 304 303 303 303 303 304 305 305 305 305 306 306 304 304 304 302 302 303 303 302 301 298 296 295 294 295 296 296 296 294 293 291 289 288 288 288 288 289 289 289 289 288 288 287 287 286 286 286 286 286 287 286 286 286 286 286 285 285 284 284 283 283 282 282 282 282 282 282 282 281 281 280 280 280 280 279 279 279 279 279 278
309 307 305 304 303 302 302 303 303 304 305 306 306 305 305 305 304 303 303 303 303 302 303 302 302 300 296 294 293 293 293 293 294 294 292 291 290 289 288 288 289 289 290 290 289 289 288 287 287 287 287 287 286 287 287 287 287 287 286 286 286 285 285 285 284 283 283 282 282 282 282 282 281 281 281 281 280 280 280 279 279 279 279 278 278 278
308 305 304 303 302 302 304 304 304 304 305 305 305 304 304 304 303 303 304 304 303 303 303 302 302 299 295 293 292 292 292 292 292 292 291 290 289 289 289 289 289 289 289 289 288 288 287 287 287 287 287 287 287 287 287 287 287 286 286 285 285 285 285 285 284 284 283 282 282 282 282 281 281 281 281 281 280 280 280 279 279 279 278 278 278 278
307 304 303 302 302 303 305 305 303 304 306 306 304 303 303 303 302 303 303 303 303 303 302 302 302 299 294 292 292 291 291 291 290 290 290 290 289 289 290 290 289 289 288 288 287 288 288 287 288 287 287 286 286 286 286 285 285 284 284 284 284 284 284 284 284 284 283 283 282 282 282 281 281 281 281 280 280 280 280 280 279 279 278 278 278 278
306 303 302 303 303 304 305 305 303 303 305 305 303 302 301 301 301 302 302 302 303 303 301 301 301 301 297 295 292 291 290 290 290 290 289 289 290 290 290 290 289 288 288 287 288 288 288 287 287 286 286 285 285 284 283 283 283 283 282 282 283 283 283 283 283 284 283 283 282 282 281 281 281 281 281 280 280 280 280 279 279 279 278 278 278 278
304 302 301 304 305 304 305 304 302 301 303 304 303 301 301 301 301 301 302 302 303 303 301 300 301 302 300 295 292 291 290 289 289 289 289 289 290 290 290 289 289 288 288 288 288 288 287 286 285 285 285 284 283 283 282 282 282 282 282 281 281 281 282 282 282 283 283 282 282 281 281 281 281 281 280 280 280 280 280 279 279 278 278 278 277 277
304 302 302 304 305 305 304 303 302 300 302 304 304 301 301 301 301 302 302 302 302 302 302 301 300 300 300 296 292 291 290 289 289 289 290 290 290 290 289 289 288 288 288 288 287 287 286 285 285 284 284 283 282 282 281 281 281 281 281 281 281 281 281 281 282 282 282 282 281 281 281 280 280 280 280 280 280 279 279 279 278 278 278 278 277 277
305 304 304 304 305 304 303 302 302 300 301 304 303 301 301 301 302 302 302 301 302 301 301 301 300 300 300 297 292 292 291 290 290 290 290 290 290 290 289 288 288 288 287 287 286 286 285 284 284 284 283 282 282 281 280 280 279 279 279 279 280 280 280 280 281 282 282 281 281 280 280 280 280 280 280 279 279 279 279 278 278 278 277 277 277 277
304 304 303 305 305 303 301 301 301 300 301 303 302 301 301 301 302 302 301 301 301 301 302 301 300 299 300 298 293 292 293 292 292 291 291 291 290 289 289 288 288 287 287 286 285 284 283 283 283 283 283 282 281 280 279 278 278 277 278 278 279 279 279 279 279 280 281 280 280 280 280 280 280 279 279 279 279 278 278 278 278 277 277 277 277 276
303 302 302 304 303 301 301 300 300 300 301 301 301 301 302 302 303 302 301 301 300 301 302 301 299 299 300 299 296 296 296 293 293 292 291 291 289 289 288 288 287 287 286 286 285 284 282 282 283 283 282 281 280 279 278 277 277 277 278 278 278 278 278 278 278 279 279 280 279 279 279 279 279 279 279 278 278 278 278 277 277 277 277 276 276 276
303 301 302 303 301 300 301 300 301 300 300 301 301 302 303 304 303 301 300 300 301 303 302 300 299 299 299 299 298 297 295 293 292 292 291 290 289 289 288 287 287 286 285 285 284 283 282 282 282 282 281 280 279 278 277 277 277 277 277 277 277 277 277 277 277 277 278 279 279 279 279 279 278 278 278 278 278 277 277 277 277 276 276 276 276 275
305 304 303 302 300 300 300 301 302 300 300 302 301 302 303 304 302 301 301 301 302 304 302 300 299 299 299 299 297 294 292 291 291 291 291 290 289 289 288 287 287 286 285 284 283 282 281 281 282 282 280 279 278 277 277 277 277 276 276 276 276 276 276 276 276 276 276 277 277 277 277 277 277 277 277 277 276 276 276 276 276 276 276 275 275 275
306 303 302 301 300 300 300 302 303 301 301 301 301 301 303 303 303 303 303 303 302 303 301 300 299 299 299 299 296 293 292 291 291 291 290 290 289 288 288 287 286 285 284 283 282 282 281 281 281 280 279 278 277 277 277 277 276 275 275 275 275 275 275 274 275 275 275 275 275 275 275 275 275 275 275 275 275 275 275 275 275 275 275 275 274 274
306 303 302 302 301 300 300 300 301 301 301 300 300 301 302 301 302 303 303 302 302 302 300 300 299 299 299 298 294 293 292 291 291 291 290 290 289 288 287 287 285 284 283 282 281 281 281 281 280 279 278 277 277 277 276 276 275 275 274 274 274 274 274 274 273 273 273 273 273 273 273 273 273 273 274 274 274 274 274 274 274 274 274 274 273 273
306 306 303 302 301 300 299 298 299 300 299 299 299 300 301 300 300 302 302 301 301 300 300 300 300 300 300 297 294 292 292 291 291 291 291 290 288 287 287 286 284 283 283 282 281 281 281 280 279 278 277 276 276 276 276 275 274 274 274 274 273 273 273 273 273 273 272 272 272 272 272 272 272 273 273 273 273 273 273 273 273 273 273 273 273 273
306 307 302 300 300 299 299 298 299 300 299 300 300 300 300 298 298 299 300 299 300 299 300 301 300 300 298 294 292 292 291 291 291 291 290 289 288 287 286 285 283 283 283 281 280 280 281 280 278 277 276 276 276 276 275 274 273 273 273 272 272 273 273 272 272 272 271 271 271 271 271 271 271 272 272 272 272 272 272 272 272 272 272 272 272 272
305 306 302 300 299 297 298 299 299 299 300 300 300 299 298 297 296 298 299 299 299 300 301 300 300 299 298 294 291 291 292 292 292 291 290 288 288 287 285 284 283 282 282 281 280 280 279 279 278 277 276 275 275 275 275 274 273 272 272 272 272 272 272 271 270 270 270 270 270 270 270 271 271 271 271 271 271 271 271 271 271 271 271 271 271 271
302 306 304 301 300 298 297 299 298 298 300 300 299 298 297 296 296 297 299 299 299 300 300 299 299 299 299 297 294 292 293 293 292 291 289 288 288 286 285 284 283 282 282 281 280 279 278 277 277 276 275 275 275 274 274 273 272 272 271 271 271 271 270 269 269 269 269 269 269 270 270 270 270 270 271 271 271 271 271 270 270 270 270 270 270 271
299 305 305 301 300 299 297 298 299 298 299 299 298 297 297 298 298 298 299 299 299 300 300 299 298 298 298 298 296 294 293 292 290 289 289 288 287 286 285 284 283 282 281 280 279 279 278 277 276 276 275 275 274 274 273 273 272 271 271 270 270 269 269 269 268 269 269 269 269 269 269 270 270 270 270 270 270 270 270 269 269 270 270 270 270 270
300 303 304 301 300 299 298 299 301 300 298 298 298 297 296 297 298 297 297 297 298 299 299 299 299 299 298 296 295 294 292 290 289 289 289 288 287 286 284 283 282 281 280 279 278 278 277 276 276 275 275 274 274 273 273 272 272 271 270 269 269 268 268 268 268 268 268 268 268 269 269 269 269 269 269 269 269 269 269 269 269 269 269 269 269 269
300 301 304 303 302 301 300 300 300 300 299 299 299 298 297 297 297 296 296 296 296 297 297 298 298 298 297 295 294 293 292 290 290 290 289 288 286 285 284 283 282 281 280 279 278 278 277 276 275 275 274 274 273 273 272 272 271 270 270 269 268 268 268 267 268 268 268 268 268 268 269 268 268 268 268 268 268 268 268 268 268 268 269 268 268 268
300 301 302 303 304 304 301 297 297 298 298 298 298 297 296 296 297 297 298 297 295 296 296 296 296 297 296 295 293 294 294 292 291 290 289 288 286 284 283 283 282 281 279 278 278 277 276 275 275 275 274 274 273 272 271 271 271 270 269 269 268 267 267 267 267 267 268 268 268 268 267 267 267 267 267 268 267 267 267 267 267 267 267 267 267 267
298 300 301 303 303 302 298 295 296 297 296 296 296 296 296 296 296 297 298 297 295 295 295 295 296 296 296 294 294 294 294 293 291 290 288 287 285 284 283 282 281 280 279 278 277 277 276 275 275 274 274 273 271 271 271 271 270 269 268 268 268 267 267 267 267 267 267 267 267 267 267 267 267 267 267 267 266 266 266 266 266 266 266 266 266 266
298 299 301 304 303 299 295 294 295 294 295 296 296 295 295 295 295 295 295 294 294 295 295 295 296 297 296 295 295 295 294 292 291 290 288 286 285 284 282 282 281 280 278 278 277 276 276 275 274 273 273 272 270 270 270 270 269 268 268 268 267 267 266 266 266 266 267 267 266 266 266 266 266 266 266 265 265 265 265 265 265 265 265 265 265 266
299 301 301 303 305 303 299 298 297 295 295 297 296 294 294 294 293 293 293 292 292 294 295 295 296 297 296 296 295 294 294 292 290 289 287 286 284 283 282 281 280 279 278 277 276 276 275 275 274 272 271 271 270 270 270 269 268 267 267 267 266 266 266 266 266 266 266 266 266 266 265 265 265 265 265 264 264 264 264 264 264 265 265 265 265 266
298 300 300 302 305 306 305 304 302 300 298 298 297 293 293 293 293 294 294 293 295 296 295 295 296 296 296 296 295 294 293 291 289 288 287 286 284 283 282 281 279 278 277 276 275 275 275 274 273 272 270 270 269 269 269 268 267 267 267 266 266 265 265 265 265 266 265 265 265 265 264 264 264 264 264 264 264 264 264 264 264 264 265 265 265 265
297 299 299 301 302 302 303 303 301 300 299 299 299 297 294 293 292 293 293 295 296 296 295 295 295 295 295 295 294 293 292 290 289 288 287 285 284 282 281 280 278 277 277 276 275 275 274 273 272 271 270 269 268 269 268 267 267 266 266 266 265 265 265 265 265 265 265 264 264 264 264 264 263 263 263 263 263 263 263 264 264 264 265 265 265 265
297 300 300 300 300 300 300 299 299 299 298 298 299 299 296 293 292 292 293 295 296 295 295 296 295 295 294 293 293 293 291 289 288 288 286 285 283 282 281 279 278 277 276 275 275 274 273 272 271 270 270 269 268 268 268 267 266 266 265 265 265 264 264 265 264 264 264 263 263 263 263 263 263 263 263 263 263 263 263 264 264 264 264 265 265 265
297 300 300 299 299 298 297 297 298 298 297 297 297 298 297 295 293 293 293 294 294 294 295 295 294 293 293 293 293 292 290 289 288 287 286 284 283 281 280 278 277 276 275 275 274 273 272 271 270 270 269 268 268 267 267 266 265 265 265 264 264 264 264 264 263 263 263 263 263 263 263 263 262 262 262 262 263 263 263 264 264 264 264 264 265 265
297 300 300 297 297 297 297 298 298 297 297 297 297 296 296 295 295 294 294 293 293 293 293 293 293 292 293 293 293 292 290 289 288 287 285 283 282 281 279 277 276 275 275 274 274 273 272 270 269 269 269 267 267 267 266 266 265 264 264 264 264 264 264 263 263 262 262 262 262 262 262 262 262 262 262 262 263 263 263 263 264 264 264 264 265 265
296 299 299 296 297 300 300 298 298 297 296 296 296 295 295 295 295 294 294 293 293 293 293 292 293 293 293 293 293 291 289 289 288 287 285 283 281 280 278 277 275 275 274 274 273 272 271 270 269 269 268 267 267 266 266 265 264 264 264 263 263 263 263 262 262 262 262 262 262 262 262 262 261 262 262 262 262 263 263 263 263 263 264 264 264 265
295 297 297 296 298 302 300 297 298 297 296 295 295 295 294 294 294 294 294 294 293 294 293 293 293 294 294 293 292 290 289 288 287 286 284 282 281 280 277 276 275 274 274 273 272 271 270 269 268 268 267 266 266 266 265 264 264 263 263 263 263 263 262 262 261 261 261 261 261 261 261 261 261 261 262 262 262 263 263 263 263 263 264 264 264 265
296 297 297 297 299 302 301 299 298 297 298 300 299 297 296 295 295 294 294 294 293 293 293 293 294 294 294 293 291 290 289 288 287 285 283 282 281 279 277 275 275 274 273 273 272 270 269 269 268 268 266 266 266 265 264 264 263 263 263 262 262 262 261 261 261 261 261 261 261 261 261 261 261 261 262 262 262 262 262 262 263 263 263 264 264 264
294 296 297 296 298 301 301 299 298 301 305 304 299 296 296 296 295 295 294 294 294 294 293 293 294 293 293 292 291 289 288 287 286 284 283 281 279 277 276 275 274 274 273 272 271 270 269 268 267 267 266 265 265 265 264 263 263 262 262 262 262 261 261 260 260 260 260 260 260 260 260 260 261 261 261 261 261 262 262 262 262 263 263 263 264 264
295 295 296 295 295 299 300 299 303 309 307 299 294 294 295 294 293 293 293 293 293 293 293 293 293 293 292 291 290 288 288 287 285 283 282 280 277 276 275 274 274 273 272 271 270 270 269 267 267 266 265 265 264 264 264 263 262 262 262 261 261 261 260 260 260 260 260 260 260 260 260 260 260 260 261 261 261 261 261 262 262 262 263 263 264 264
295 295 296 295 296 298 300 301 305 309 303 295 292 293 292 291 292 292 293 294 293 292 293 293 292 292 291 290 289 288 287 285 283 282 280 278 276 275 275 274 273 273 272 271 270 269 268 267 266 265 265 264 264 264 263 262 262 261 261 261 260 260 260 259 259 259 259 260 259 259 260 260 260 260 260 260 261 261 261 261 261 262 262 263 264 264
295 295 295 296 297 298 299 301 302 304 303 298 293 292 292 292 292 292 293 295 294 293 293 292 292 291 290 289 288 287 285 284 283 281 278 277 277 276 274 274 273 273 272 270 269 268 267 266 265 265 264 264 264 264 263 262 261 261 261 260 260 260 259 259 259 259 259 259 259 259 259 259 260 260 260 260 260 260 260 261 261 262 262 263 264 264
294 294 294 296 298 296 297 300 301 303 307 302 295 293 292 292 292 290 291 293 293 293 293 291 290 290 289 288 288 286 284 283 283 281 278 277 277 276 275 274 273 272 271 270 269 268 266 266 265 264 264 264 263 263 262 261 260 260 260 260 259 259 259 258 258 258 259 259 258 259 259 259 259 259 259 260 260 260 260 260 261 261 262 263 264 264
293 292 292 294 297 296 297 299 301 303 306 301 295 292 291 291 289 289 292 295 294 291 291 290 289 289 289 288 286 285 284 283 283 282 279 278 277 275 274 274 273 272 271 269 268 267 266 265 265 264 264 263 263 263 261 260 260 260 260 259 259 259 258 258 258 258 258 258 258 258 258 259 259 259 259 259 259 259 260 260 261 261 262 263 264 264
292 293 293 294 297 297 297 298 300 302 304 299 294 291 290 289 288 291 300 301 293 289 290 290 289 289 288 287 286 284 284 283 283 282 280 278 277 275 274 273 272 271 270 269 267 266 265 265 264 264 263 263 262 262 261 260 260 260 259 259 258 258 258 258 258 258 257 257 258 258 258 258 259 259 259 259 259 259 260 260 260 261 262 263 264 265
294 294 294 295 297 298 298 298 299 302 302 297 292 290 289 288 290 297 304 299 291 290 291 289 289 289 288 286 286 285 284 283 282 280 279 277 276 275 274 273 272 270 269 268 267 266 265 265 264 263 263 262 262 261 260 259 259 259 258 258 258 258 257 257 257 257 257 257 257 258 258 258 258 258 258 258 259 259 260 260 261 261 262 263 264 265
298 296 295 295 297 298 298 298 299 302 300 294 290 289 288 291 298 301 298 293 291 292 291 289 289 288 287 286 285 284 284 283 281 279 278 276 275 274 274 272 271 270 269 268 267 266 265 264 263 263 262 262 262 261 260 259 259 259 258 258 258 257 257 257 257 257 257 257 257 257 257 257 258 258 258 258 259 259 260 260 261 261 262 263 264 266
299 299 300 299 298 299 298 297 300 305 299 292 290 291 289 293 300 298 294 293 293 291 290 290 289 288 286 286 285 283 283 281 279 278 277 276 275 274 273 272 271 270 268 267 267 266 264 264 263 263 262 261 261 260 259 259 259 258 258 257 257 257 257 256 256 256 256 256 256 256 257 257 257 257 258 258 259 259 260 260 261 261 262 264 265 266
298 300 303 303 301 300 300 301 304 305 297 291 294 296 294 294 297 295 293 293 293 291 290 289 289 287 286 285 284 283 281 280 278 277 276 275 275 274 273 272 270 269 268 267 266 265 264 263 263 262 262 261 260 259 259 258 258 258 257 257 257 257 256 256 256 256 256 255 256 256 256 257 257 257 258 258 259 259 260 260 261 262 263 264 266 267
299 299 299 300 300 300 301 303 303 301 296 293 294 297 297 296 296 294 293 292 292 291 290 289 288 287 285 284 283 281 280 279 277 276 275 275 274 273 272 271 270 269 267 266 266 265 264 263 262 262 261 260 259 259 258 258 258 257 257 257 257 256 256 255 255 255 255 255 255 256 256 257 257 258 258 259 259 260 260 261 262 262 263 265 266 268
298 296 295 296 298 298 299 300 300 299 298 296 295 295 296 296 295 293 292 291 291 291 289 288 288 287 284 283 282 280 279 278 277 276 275 274 273 273 272 270 269 268 267 266 265 264 263 262 262 261 261 260 259 258 258 257 257 257 257 256 256 255 255 255 255 254 254 255 255 256 256 257 257 258 258 259 259 260 260 261 262 262 263 265 266 267
296 294 294 295 297 297 299 300 299 299 299 298 298 296 295 294 293 292 291 291 290 290 289 287 286 285 283 282 281 280 279 277 276 275 275 274 273 272 271 270 269 268 267 266 265 264 263 262 261 261 260 259 258 258 257 257 257 257 256 256 256 255 255 254 254 254 254 254 255 256 256 257 258 258 259 259 259 260 260 261 262 262 263 264 265 267
297 293 294 296 296 296 298 300 299 298 298 298 298 297 295 294 293 292 290 290 289 289 288 287 285 284 282 281 280 279 278 276 276 275 274 273 273 272 270 270 269 267 266 266 264 263 262 261 261 260 259 258 258 257 257 257 257 256 256 256 255 255 254 254 254 254 254 254 255 256 257 257 258 258 258 259 259 260 260 261 261 262 263 264 265 266
294 293 296 297 296 296 298 298 298 298 299 298 298 297 296 295 294 292 290 289 288 287 287 285 284 283 282 281 280 278 277 276 275 275 274 273 272 271 270 269 268 267 266 265 264 263 262 261 260 259 259 258 257 257 257 256 256 256 255 255 255 254 254 254 253 253 254 254 255 256 257 257 257 258 258 259 259 259 260 260 261 262 263 264 265 266
293 295 297 296 297 299 299 300 300 300 300 300 299 297 296 295 293 291 290 288 287 287 286 284 283 282 281 280 279 277 276 276 275 275 273 272 271 271 270 269 268 267 266 264 263 263 262 261 260 259 258 257 257 256 256 256 255 255 255 255 254 254 253 253 253 253 254 255 256 256 256 257 257 258 258 258 259 259 260 260 261 262 264 265 266 266
295 298 298 297 299 301 302 302 301 300 299 299 298 296 294 293 291 290 290 289 288 287 286 285 284 282 280 279 278 277 276 275 275 274 273 272 271 270 269 268 267 266 265 264 263 262 261 260 259 258 258 257 256 256 256 255 255 255 254 254 254 253 253 253 253 253 254 255 255 256 256 256 257 257 258 258 259 259 259 260 262 263 264 265 265 265
Wind_Speed
2 6 7 7 7 7 7 6 6 7 7 8 8 6 8 9 8 13 12 3 3 9 8 7 8 6 9 11 11 9 9 11 11 10 10 8 9 8 8 7 5 5 5 6 10 14 15 17 19 19 18 18 20 20 19 19 19 20 21 22 22 22 21 19 19 18 17 16 15 14 14 14 14 14 13 12 11 10 10 10 10 10 10 10 10 11
2 8 7 7 6 5 4 4 6 8 8 7 6 7 7 6 10 15 10 0 2 7 7 8 9 4 10 10 10 9 10 12 11 10 10 9 9 7 7 6 4 4 7 11 13 17 18 19 21 20 20 20 21 22 22 22 22 23 23 23 23 23 23 22 22 21 19 18 17 16 16 16 16 15 15 15 13 11 11 11 11 11 10 10 11 11
6 8 6 6 5 5 4 3 7 8 7 6 5 7 7 7 11 11 5 4 7 7 6 10 9 3 11 10 10 10 9 10 10 10 10 9 9 6 5 5 6 7 10 12 14 17 18 19 20 21 22 23 23 24 23 22 22 22 22 23 23 24 25 25 24 23 22 21 20 19 19 18 17 17 17 16 16 14 13 14 14 13 12 12 12 11
5 5 5 5 5 7 4 3 10 9 4 3 5 6 7 9 11 7 6 12 13 6 4 10 9 3 10 9 11 9 8 10 10 10 9 8 7 5 5 6 7 10 11 12 13 16 19 21 22 23 23 23 22 21 22 22 22 22 23 24 25 26 27 26 24 24 24 24 23 22 21 20 20 20 19 18 18 17 16 16 15 15 15 14 14 14
6 4 5 5 5 6 6 7 11 9 5 5 4 6 10 12 12 11 12 16 12 2 1 9 8 3 7 6 8 7 8 10 9 8 8 6 5 3 6 8 10 10 10 11 12 17 23 25 24 24 22 21 21 22 24 26 26 26 25 26 26 26 27 26 26 27 26 24 23 22 21 21 21 20 19 18 17 17 16 16 16 16 16 16 17 18
6 3 3 5 4 5 8 7 9 8 8 4 3 7 14 15 15 15 14 14 8 0 4 6 8 1 6 7 6 5 6 7 7 6 5 4 3 5 7 9 10 10 10 12 16 21 24 23 23 23 21 22 23 24 26 27 27 27 27 27 28 27 27 27 29 29 24 19 19 21 21 20 20 19 19 18 18 18 17 17 17 17 17 17 19 19
4 1 2 4 4 8 9 6 7 8 7 4 4 11 17 15 14 14 13 9 6 5 4 4 5 6 1 7 7 6 7 7 6 4 3 2 3 6 8 8 9 10 12 16 20 22 21 23 24 21 21 25 26 26 27 27 27 29 29 28 28 28 27 26 28 25 18 16 18 21 22 22 21 21 20 20 19 19 19 19 18 18 18 19 19 20
2 2 2 4 4 8 9 6 7 6 5 5 9 16 18 15 14 11 10 7 5 8 4 2 2 8 5 4 8 8 8 7 5 3 2 3 6 8 8 9 10 13 14 15 15 17 21 24 24 22 25 28 27 27 28 30 31 32 33 31 29 29 27 26 26 21 15 16 19 22 23 23 22 22 22 22 21 20 20 19 19 19 19 19 19 21
2 4 4 5 5 7 8 8 6 4 4 6 12 18 16 15 14 10 7 7 5 6 3 1 6 8 6 2 9 10 6 5 3 1 1 4 7 8 10 11 13 15 16 14 12 16 23 26 24 25 27 27 27 29 31 33 35 34 33 31 29 28 28 28 28 24 21 20 19 19 19 20 21 22 23 23 22 22 21 20 20 20 20 20 21 22
2 3 2 4 5 6 8 9 4 3 4 9 16 18 16 13 11 8 6 5 4 4 2 7 10 7 7 3 5 9 4 1 2 1 2 4 6 8 12 13 13 14 13 12 13 19 26 27 26 25 24 26 30 33 34 34 34 31 28 27 27 28 28 28 29 28 26 23 19 17 17 19 21 22 22 22 22 22 21 21 21 21 21 22 22 22
4 1 1 2 4 4 9 8 2 4 8 12 15 16 12 8 7 5 5 4 4 3 5 8 10 9 9 5 1 3 1 0 3 3 3 5 8 10 13 14 15 16 13 11 15 23 28 28 26 24 24 28 33 34 34 32 28 26 25 26 28 27 25 24 25 26 25 22 18 16 17 18 19 19 19 19 19 19 19 20 20 22 23 23 23 23
5 3 1 2 2 5 10 7 3 6 10 11 10 11 8 2 4 3 3 2 4 6 7 9 13 12 9 4 2 3 3 3 2 3 5 9 11 13 14 14 16 18 15 13 15 21 27 26 23 23 27 32 34 33 31 27 24 24 24 24 25 24 22 22 22 22 23 22 19 19 18 16 16 16 15 15 16 16 17 19 21 22 24 25 25 25
4 2 3 3 0 5 9 7 1 5 6 8 9 9 8 5 2 3 4 4 5 7 7 13 16 9 8 4 3 5 5 5 3 2 6 10 13 15 16 15 14 14 14 14 15 19 23 24 23 25 29 32 33 30 26 23 22 23 23 23 23 21 20 21 21 21 20 20 19 20 19 18 17 17 16 17 17 17 19 20 22 24 25 26 26 26
1 3 3 2 1 4 7 6 3 2 5 8 9 9 8 7 7 6 7 7 7 7 8 15 13 7 8 4 4 4 4 5 3 1 6 9 11 15 17 17 16 14 13 14 16 18 21 22 24 27 30 31 30 25 21 22 24 25 23 22 22 21 21 21 21 21 20 20 19 19 20 20 19 19 19 19 19 20 21 23 24 26 27 27 28 30
2 1 2 2 2 4 5 4 3 5 4 5 6 7 6 5 4 5 6 7 9 11 12 12 8 6 8 2 5 3 3 4 3 4 7 8 9 13 17 18 17 15 14 15 16 19 21 23 25 28 30 29 26 23 21 23 24 24 23 23 24 24 23 22 22 22 21 20 20 20 20 20 20 20 20 20 21 22 23 24 26 27 27 27 28 28
4 1 3 3 3 4 3 2 3 5 2 2 4 5 6 4 2 5 7 9 10 11 11 7 5 6 4 4 5 4 4 4 6 6 7 9 10 15 18 17 16 16 15 16 16 17 20 24 26 28 27 26 25 23 23 23 23 24 25 25 26 25 23 22 23 24 24 22 22 21 21 21 20 21 21 20 21 22 22 23 24 25 26 25 24 24
4 1 5 4 3 4 3 2 2 4 3 3 4 5 6 3 3 5 8 9 9 9 7 6 8 8 4 3 6 5 5 6 8 8 9 10 15 18 17 15 15 15 16 17 16 16 21 25 25 26 25 24 24 23 22 23 23 26 27 25 24 23 23 25 26 26 25 24 23 22 21 21 21 21 21 21 22 22 22 22 22 23 23 23 22 21
4 4 4 4 2 3 1 3 6 4 4 3 3 6 6 1 3 4 6 6 7 7 6 6 10 11 8 3 2 2 9 12 11 10 10 14 18 19 18 18 16 15 16 16 16 18 22 25 25 24 23 25 25 23 23 23 24 27 26 23 23 24 25 26 26 24 24 24 23 21 21 20 20 20 20 21 21 21 21 21 22 23 22 21 21 20
2 4 2 2 2 4 4 1 3 4 5 4 3 3 4 1 2 4 6 6 7 9 8 8 10 10 7 5 5 12 16 14 11 9 12 18 20 18 20 20 18 16 15 14 14 16 21 24 25 23 23 25 24 22 24 25 25 25 23 21 22 24 25 26 25 24 23 22 20 20 20 19 19 18 18 19 19 19 20 21 21 21 21 20 19 18
2 2 1 2 3 6 5 3 1 3 5 5 4 2 2 1 3 3 3 4 6 8 8 10 12 7 3 5 9 14 13 9 9 10 14 19 19 19 19 16 15 15 14 14 13 15 20 24 24 23 25 26 23 23 26 26 25 24 22 22 23 24 25 25 24 23 22 21 20 19 19 18 17 18 19 19 19 19 20 20 20 20 19 18 18 18
1 2 2 2 3 4 2 1 3 3 2 1 0 3 3 2 2 2 2 2 3 6 7 11 12 7 3 5 6 11 11 6 9 14 16 19 19 19 17 15 14 13 13 14 13 16 21 24 23 24 25 24 23 26 28 27 25 22 23 24 24 24 25 24 22 22 21 20 19 18 18 19 19 20 20 20 19 19 19 19 19 19 18 19 19 20
2 2 4 6 4 1 2 4 4 3 2 2 2 2 2 2 2 4 3 1 1 4 5 9 12 10 6 3 3 10 15 13 15 18 19 19 20 18 16 15 14 13 13 14 15 18 21 22 23 25 25 23 25 28 28 24 21 21 23 25 24 25 24 23 22 22 20 19 18 18 20 20 20 20 19 19 19 19 19 19 20 20 21 22 22 22
2 2 5 7 5 2 5 5 4 4 4 3 2 0 1 0 1 4 5 4 3 5 6 7 11 10 3 2 4 13 18 19 19 19 20 20 19 17 16 15 14 13 14 15 17 20 22 22 23 25 25 24 26 27 24 20 19 21 24 25 25 25 24 23 22 20 19 18 18 20 20 19 19 18 19 20 20 21 21 22 23 23 24 24 24 24
1 2 4 6 3 4 6 4 3 3 2 1 2 3 3 2 1 3 4 5 5 6 7 7 9 8 1 1 9 16 20 21 18 18 20 19 16 15 15 15 13 12 14 15 18 21 22 21 22 24 25 24 25 24 20 19 20 22 24 25 25 25 24 22 21 19 19 19 19 19 19 19 20 20 21 22 23 23 24 23 23 22 22 23 23 22
1 1 3 6 4 0 1 1 2 1 2 3 3 4 4 4 3 3 2 1 3 6 7 7 9 9 6 10 15 19 21 21 17 16 18 17 15 14 13 13 12 12 15 16 17 19 20 19 20 23 24 22 23 22 20 20 21 22 24 25 25 24 22 21 20 19 19 18 19 19 20 22 22 22 23 23 23 23 22 22 21 20 21 20 21 21
2 3 3 4 6 6 5 4 4 3 4 3 3 6 6 6 7 3 3 3 4 6 7 9 12 13 15 17 18 20 21 18 16 17 17 16 14 13 12 11 11 12 15 17 17 16 16 18 20 22 22 21 21 20 21 23 23 23 25 25 23 22 21 20 19 19 19 19 20 22 23 24 23 22 23 22 21 21 21 21 21 20 21 20 21 21
2 3 4 4 4 6 8 9 9 8 8 8 5 5 7 6 7 4 3 5 7 8 9 12 14 19 23 21 20 21 19 16 17 19 18 16 14 14 12 11 11 12 14 16 15 14 14 16 20 21 20 20 21 21 21 24 24 24 24 23 22 20 20 19 19 19 20 21 22 23 23 23 22 22 21 21 21 21 21 21 21 21 21 21 21 22
3 4 3 3 7 10 11 14 14 11 10 12 11 6 6 8 8 6 7 9 9 8 10 12 14 19 24 23 22 22 17 16 18 20 18 16 14 13 12 10 12 14 15 15 15 14 14 15 19 21 19 19 21 21 22 24 23 23 23 22 20 20 19 19 19 21 22 22 23 23 23 22 22 21 21 21 21 21 21 21 21 21 21 21 22 22
4 3 1 0 8 12 14 16 15 12 11 11 12 11 8 8 11 11 12 13 9 8 13 17 20 22 22 22 22 19 15 17 20 19 17 15 15 13 11 11 13 16 16 16 15 15 13 14 19 20 19 20 21 21 23 24 23 22 21 20 20 19 19 19 21 22 23 22 22 22 21 21 21 21 21 21 22 21 21 21 21 22 22 22 22 22
3 2 2 1 8 13 14 13 11 10 11 11 12 13 13 11 12 13 14 14 13 16 19 22 25 24 21 19 18 15 14 16 18 17 15 16 16 14 11 11 14 16 17 16 15 14 13 16 20 19 18 20 21 21 23 23 22 21 20 20 19 19 19 20 22 23 22 22 21 20 21 21 21 22 21 22 22 21 21 22 22 22 22 22 22 22
2 1 3 0 7 11 8 6 6 8 10 12 13 13 13 13 13 13 13 13 13 17 19 20 22 19 15 13 14 14 14 15 17 17 16 14 14 13 10 11 15 17 16 16 15 14 13 17 20 17 17 20 20 21 23 22 22 21 19 19 19 19 20 21 22 22 21 21 20 20 21 21 22 22 22 22 22 21 22 23 23 23 23 23 23 22
2 1 0 1 6 7 2 4 6 9 9 10 13 13 13 12 10 10 10 10 11 13 16 16 14 12 10 11 14 15 15 17 18 17 15 14 13 11 9 11 15 16 16 15 15 13 13 16 18 17 17 20 19 20 22 21 21 20 19 19 19 19 21 21 21 21 20 20 20 20 21 22 22 22 22 22 22 22 23 23 23 23 23 23 23 22
1 3 2 1 5 5 1 3 10 10 6 5 5 8 12 13 11 11 11 12 14 13 12 11 11 12 13 15 17 17 16 17 17 14 14 15 13 9 8 12 15 15 14 14 14 13 13 15 16 16 17 19 19 20 20 20 20 20 19 19 19 19 21 21 21 20 19 19 19 20 21 22 22 22 22 22 22 23 23 23 23 24 23 23 23 22
1 3 3 1 3 6 6 10 10 6 4 2 2 4 8 10 12 13 13 14 14 12 12 13 15 16 16 16 16 17 17 16 14 14 15 12 8 7 8 12 14 13 13 13 13 13 13 14 16 16 17 18 18 19 19 19 20 20 18 18 19 19 20 20 20 19 19 19 19 20 22 22 22 22 22 22 23 23 23 23 23 23 23 23 22 21
3 2 2 0 2 6 7 8 7 4 1 2 3 3 4 6 9 13 17 18 17 17 18 19 19 18 16 15 15 15 16 15 15 16 14 5 2 5 9 11 13 13 12 12 12 12 13 14 15 16 17 17 18 19 19 19 20 19 17 18 19 18 19 20 20 19 18 19 20 21 22 22 22 22 22 23 23 23 23 23 23 23 23 23 22 21
3 2 2 2 3 4 5 4 4 7 5 2 4 2 2 3 7 10 15 16 16 17 17 16 16 15 14 14 13 13 14 14 14 12 4 2 1 5 8 10 11 12 11 12 12 13 14 14 14 16 16 16 17 19 19 19 19 18 18 19 18 17 18 19 19 18 18 19 20 21 22 22 22 22 23 23 23 23 24 24 24 24 23 23 23 22
3 2 1 2 3 2 5 5 6 11 10 2 3 4 5 3 3 4 9 11 10 11 12 12 13 13 12 13 12 10 10 12 11 4 4 2 4 5 7 10 11 11 12 12 12 12 13 13 13 15 16 15 17 19 19 19 19 18 18 18 17 16 18 18 18 18 19 19 21 21 22 22 22 22 23 22 22 23 24 24 25 24 23 23 24 24
3 3 2 2 2 1 4 6 5 8 7 0 3 5 6 3 3 2 5 10 7 7 10 10 11 11 11 10 10 9 8 9 8 2 3 2 6 6 8 11 10 11 12 12 12 12 13 13 13 14 15 15 17 19 19 19 19 17 17 18 16 16 17 17 17 18 19 20 21 22 22 22 21 22 22 21 22 24 24 25 25 24 23 23 24 26
3 3 2 3 4 3 4 5 4 5 5 1 5 8 7 6 5 3 4 5 3 7 9 9 10 10 9 9 8 7 6 7 7 4 3 6 8 7 8 10 10 11 11 11 11 12 12 13 13 13 14 15 17 19 19 19 18 16 17 17 16 16 17 17 17 18 19 21 21 22 22 21 20 20 20 21 23 24 24 25 25 24 23 23 23 26
3 3 4 5 6 4 4 5 4 6 6 1 9 9 7 8 7 2 6 4 3 7 8 8 8 8 7 7 7 5 5 7 8 7 8 9 9 8 9 10 11 11 11 11 10 11 12 12 12 13 13 14 17 19 19 18 17 15 17 17 16 16 17 17 18 19 19 20 21 21 21 21 20 19 20 22 23 24 24 24 24 24 24 24 24 25
3 3 4 5 6 5 6 5 5 7 5 3 10 11 10 8 4 4 6 2 3 5 6 6 7 7 6 5 5 5 5 7 9 10 10 10 9 9 10 11 11 10 11 11 10 10 11 11 12 13 13 13 16 19 18 17 16 15 17 17 16 16 17 18 18 19 19 20 21 21 21 21 20 21 22 22 22 23 24 24 25 25 24 24 25 25
2 3 3 3 4 4 5 4 6 7 2 7 11 10 9 4 4 5 3 0 1 2 3 4 6 5 5 6 6 6 8 9 9 10 10 9 8 9 11 12 11 11 10 10 10 10 11 11 12 13 12 13 16 18 17 16 15 16 16 16 16 17 18 17 18 18 19 19 20 21 21 22 22 22 23 22 21 22 24 25 24 24 24 24 24 26
2 2 3 4 4 3 3 3 5 6 2 13 13 7 6 6 4 3 2 2 2 2 3 5 5 4 5 7 7 8 9 10 10 10 9 8 8 9 10 11 11 11 11 11 10 10 10 11 12 12 12 12 14 16 16 15 15 15 16 17 17 17 17 16 17 18 19 19 20 21 22 23 22 22 22 22 21 22 24 24 24 23 23 22 21 22
3 3 3 2 3 2 3 5 3 2 5 14 11 5 7 9 5 3 4 5 4 3 3 4 5 5 5 6 7 8 9 9 9 9 8 8 7 8 10 10 10 10 11 10 10 10 9 11 12 12 12 12 13 15 15 14 15 15 16 17 17 16 16 16 16 17 19 20 21 22 22 21 22 22 21 21 21 21 22 22 22 21 20 18 18 18
5 5 2 3 3 4 6 8 5 2 5 12 11 9 10 10 7 3 4 6 6 4 3 4 5 5 5 6 7 8 8 8 8 8 7 7 7 7 9 9 10 10 10 10 10 9 9 10 12 12 12 11 13 14 14 13 14 16 17 17 15 15 16 16 16 18 21 22 22 21 21 21 21 21 20 20 20 19 20 20 20 19 18 17 16 16
4 3 1 2 4 5 10 13 12 11 9 10 12 12 11 10 7 4 5 7 7 5 4 4 5 5 5 6 7 7 8 8 8 8 7 7 7 7 8 9 10 9 9 10 11 9 8 10 11 11 12 12 13 13 13 12 13 15 16 16 14 14 15 16 18 20 21 23 23 21 20 19 18 18 19 18 17 17 18 18 17 17 17 15 15 15
4 5 4 5 4 4 7 9 9 12 13 10 9 10 9 9 8 6 6 7 6 6 6 5 5 5 5 7 8 8 8 8 7 8 7 6 7 7 7 9 9 9 9 10 10 9 8 9 10 10 11 13 12 12 12 12 13 13 15 15 13 14 15 17 18 20 22 23 23 20 17 16 15 17 18 17 16 16 17 16 15 15 15 14 14 15
3 4 5 8 9 9 10 10 10 13 14 11 10 9 7 8 9 8 8 7 6 6 7 6 6 6 6 7 8 8 8 8 8 8 7 6 6 6 7 8 9 9 9 9 9 9 8 9 9 10 11 12 12 11 11 12 12 13 14 14 13 14 16 17 18 20 22 23 21 18 15 14 14 16 16 16 16 16 16 16 16 15 14 14 15 15
4 3 5 5 7 10 14 15 15 15 15 13 12 11 9 7 7 8 8 8 7 7 7 7 8 8 8 8 8 8 9 8 8 8 7 6 6 7 8 8 8 9 9 9 8 9 9 9 10 10 11 12 11 10 11 11 11 12 12 12 13 14 16 17 19 20 21 21 18 16 15 14 14 14 14 16 17 16 16 16 16 16 16 16 14 14
4 6 6 4 5 9 10 9 8 8 10 10 7 7 8 6 6 7 8 9 10 10 9 9 9 9 10 10 9 8 8 8 8 8 8 7 7 8 8 8 8 9 9 8 8 9 9 9 10 10 10 11 10 9 10 10 10 11 11 11 12 14 15 17 19 20 19 18 16 15 15 14 15 14 13 15 16 17 19 19 17 15 15 15 15 15
8 9 7 6 7 9 9 7 3 4 10 8 3 1 5 5 6 8 10 10 11 10 9 9 10 10 10 11 12 11 9 9 9 8 8 8 9 9 9 9 9 9 9 8 8 9 10 10 10 10 10 10 9 8 9 9 10 11 11 11 12 13 15 16 17 18 18 17 16 16 15 15 15 14 14 14 14 15 18 21 21 16 11 11 15 17
Wind_Direction
328 51 51 34 20 7 7 359 335 318 300 294 302 306 308 311 320 330 339 53 33 329 318 334 333 5 65 56 41 37 36 53 61 69 78 81 84 83 80 82 77 68 37 354 347 349 343 332 327 318 309 301 298 303 300 295 294 295 298 300 298 297 296 291 284 280 276 272 267 266 269 271 275 277 274 271 268 264 267 272 274 277 279 282 288 292
30 53 52 23 5 337 334 319 312 312 300 294 301 318 326 332 323 320 324 318 347 324 310 330 337 47 82 64 53 47 44 53 57 71 82 85 89 88 87 81 53 32 358 344 338 334 328 320 317 312 310 309 307 309 310 309 309 309 308 306 303 301 297 292 286 280 275 270 267 268 268 270 275 276 276 276 273 271 272 274 275 275 274 277 280 280
62 55 38 6 344 306 277 271 320 312 287 295 325 335 335 341 325 308 300 315 320 312 304 324 325 82 94 74 64 57 57 63 60 72 83 89 93 86 74 53 11 356 342 338 331 324 320 315 314 317 318 317 316 315 315 315 314 313 311 307 306 301 296 294 288 281 274 269 267 269 269 270 273 273 274 276 277 277 275 275 278 280 280 281 280 276
58 48 22 344 311 311 304 7 354 330 287 321 351 348 331 328 326 307 311 320 314 308 299 306 308 115 112 95 80 69 71 79 75 83 93 91 91 80 41 15 354 345 334 328 324 321 321 320 321 323 322 323 326 326 326 326 323 320 317 314 312 307 303 298 291 284 277 272 270 270 271 270 270 271 271 271 272 274 273 275 278 282 285 286 284 284
67 39 0 313 275 313 340 17 8 348 344 5 19 355 323 314 317 309 311 316 310 309 349 306 304 150 144 123 96 90 85 88 95 103 106 97 86 53 10 357 345 339 332 324 323 324 324 325 326 327 328 332 335 334 331 329 327 324 322 320 317 313 309 304 298 291 280 270 268 271 272 270 268 268 268 268 271 274 276 277 278 282 286 289 290 291
63 50 337 312 289 341 358 16 15 355 336 345 62 345 315 306 309 306 309 318 313 1 70 355 324 323 142 132 114 115 105 104 121 121 105 97 63 13 356 347 342 340 333 325 324 325 325 328 330 330 334 338 337 333 331 329 328 326 323 321 319 316 313 310 306 299 283 266 266 271 272 273 272 272 272 272 276 279 278 278 279 282 285 289 292 292
58 76 270 303 313 2 15 25 24 4 324 329 7 327 309 303 304 305 312 320 316 322 15 40 327 320 124 140 133 132 133 132 137 128 100 68 14 356 349 344 344 338 329 326 326 327 329 330 330 330 334 336 334 333 332 330 327 324 320 318 317 315 314 316 314 307 289 268 266 271 275 276 274 273 273 273 277 280 281 282 281 283 286 289 292 292
37 16 343 316 322 16 13 1 12 358 310 324 335 315 305 304 303 307 312 297 298 316 305 153 317 316 311 145 146 153 149 147 148 126 86 14 353 347 346 344 338 330 326 327 328 331 332 328 325 327 328 329 332 334 331 328 325 321 318 315 314 313 313 314 315 310 296 285 283 282 283 282 276 273 273 271 275 280 283 284 282 283 287 288 291 293
24 12 13 338 359 26 356 339 348 320 287 311 314 305 297 297 298 298 291 276 303 316 265 75 359 320 303 126 160 181 175 159 171 145 6 345 345 341 340 336 330 327 327 329 331 335 331 325 322 324 325 327 331 331 328 325 322 318 316 316 316 319 320 320 318 309 295 292 296 295 293 290 285 282 279 276 279 284 285 284 283 286 288 289 291 292
92 34 347 328 20 16 334 333 326 251 273 299 299 294 281 268 270 274 266 269 291 293 313 11 4 332 306 316 188 203 214 214 263 296 337 346 342 334 335 333 328 329 328 328 334 335 330 324 321 321 324 326 328 328 325 323 322 320 323 327 330 332 331 331 332 324 308 296 291 291 290 288 289 291 289 285 284 286 286 285 286 288 289 290 291 291
120 105 265 4 42 344 314 310 260 224 265 286 295 299 289 250 228 235 244 258 274 298 5 10 352 331 310 307 183 204 242 311 299 311 339 342 335 335 337 335 333 332 327 329 337 335 330 327 325 323 325 328 329 329 327 325 329 335 339 343 343 341 340 340 345 348 341 328 314 306 299 293 295 300 297 292 291 292 292 290 290 289 289 290 291 290
146 173 163 67 18 328 317 299 206 212 261 289 314 323 324 274 200 217 232 244 302 324 358 354 336 322 296 293 115 151 158 162 232 308 326 322 327 334 335 334 335 333 330 333 337 335 331 331 332 326 323 327 329 328 330 334 341 345 347 346 344 344 349 352 354 358 359 355 351 344 334 328 325 320 313 308 305 303 299 295 292 290 289 290 291 291
151 138 105 120 186 342 334 327 158 198 273 332 349 345 352 358 351 334 331 341 316 309 332 336 333 311 278 300 115 162 171 169 189 337 322 314 324 330 329 330 334 334 332 334 336 334 330 331 333 329 326 327 328 329 335 341 341 340 341 338 334 334 342 348 351 352 351 349 349 346 342 339 334 327 320 314 307 301 296 292 291 290 291 292 293 293
96 114 113 151 124 5 347 354 10 314 343 7 4 1 11 9 356 340 338 339 310 296 318 322 317 289 288 320 126 161 171 172 177 305 308 317 329 328 328 331 333 336 335 334 335 332 329 329 330 330 329 328 327 331 336 335 332 332 333 332 328 327 330 334 336 337 336 332 331 329 326 323 320 315 310 303 298 295 293 291 290 291 291 292 293 294
324 96 33 356 25 10 16 36 349 312 339 24 18 10 19 26 355 320 324 328 306 300 311 312 298 292 312 350 128 141 148 168 199 258 311 339 339 327 332 335 333 336 334 332 334 331 328 329 328 328 328 328 327 328 329 331 333 331 329 327 325 323 324 327 329 327 325 322 321 318 315 312 309 306 301 297 294 293 291 291 291 291 290 291 292 294
293 252 72 47 43 31 45 90 290 294 310 22 24 14 11 13 292 275 286 281 281 292 304 309 291 295 323 96 114 131 162 200 238 272 338 358 333 328 337 337 334 334 330 329 332 331 328 327 327 328 328 328 328 324 323 328 333 332 326 323 321 319 321 326 327 323 319 315 314 311 309 307 304 301 298 295 294 293 292 292 292 291 290 291 293 292
312 274 125 110 71 55 63 90 13 343 320 332 3 1 352 338 261 275 283 272 272 283 295 313 306 308 336 107 140 163 211 257 286 325 357 341 325 333 338 336 335 332 327 327 330 330 329 328 328 328 327 328 328 324 321 323 327 329 326 323 321 322 323 323 322 319 316 314 311 307 306 304 302 299 297 296 295 295 294 293 294 294 293 293 292 289
314 293 161 155 116 97 100 74 64 27 325 326 12 343 322 258 211 280 303 305 305 298 298 315 312 310 318 322 158 270 310 318 329 346 343 326 328 335 333 333 335 329 326 330 331 329 330 330 328 326 326 328 327 323 319 318 322 327 326 323 324 323 322 320 318 316 316 315 312 310 308 306 303 301 300 299 299 299 298 297 297 296 294 293 289 286
280 288 159 166 133 132 178 188 86 53 24 66 95 359 334 313 279 307 322 324 321 315 308 313 316 305 303 327 337 328 333 340 341 334 326 329 334 332 330 334 333 329 329 332 332 330 329 329 328 326 326 328 327 324 321 319 320 324 325 324 323 321 319 318 317 315 314 314 313 312 310 309 310 309 308 307 305 303 301 300 299 296 294 293 290 289
268 293 78 192 164 147 183 229 316 47 71 120 141 76 44 301 291 312 323 298 300 312 309 312 317 307 318 353 331 329 345 352 331 323 325 332 334 330 331 334 331 331 331 331 331 330 330 330 328 327 327 326 324 322 322 320 317 317 321 323 322 320 318 316 316 316 314 314 313 312 312 313 315 315 313 309 306 304 302 301 300 298 296 293 291 292
270 261 305 279 167 158 186 9 11 7 56 147 291 20 13 306 253 246 249 223 280 303 306 314 308 289 329 359 326 328 344 341 326 329 327 331 333 330 329 328 329 332 330 330 331 327 329 329 326 327 327 323 322 320 319 318 316 314 318 322 321 320 319 318 317 317 315 314 315 315 316 316 315 312 310 308 306 305 304 303 301 298 297 294 293 293
321 254 287 305 299 290 48 55 41 31 54 25 348 2 351 340 326 302 297 147 200 278 288 304 296 287 315 359 295 322 334 332 332 333 329 330 331 327 326 328 330 333 330 330 328 327 330 328 326 327 325 323 325 324 321 319 318 317 319 322 322 321 320 319 319 318 316 316 317 319 317 315 313 312 311 311 310 308 307 305 302 299 297 295 293 293
339 276 275 288 297 28 70 69 57 66 80 69 25 283 210 213 342 317 317 319 289 272 272 279 277 282 310 130 281 323 334 332 331 332 329 330 329 326 327 330 331 331 329 328 327 329 329 327 327 328 326 327 328 326 325 327 324 321 321 322 323 322 321 321 320 318 317 317 318 319 318 317 317 316 314 313 310 308 306 303 300 298 296 294 293 291
230 263 277 281 267 114 98 94 91 73 69 146 175 191 190 180 255 283 300 319 307 281 289 294 274 272 315 334 307 326 334 330 331 334 330 327 327 327 327 329 331 330 327 327 329 330 329 325 328 330 328 329 328 326 328 330 328 325 323 323 323 322 321 321 320 318 318 318 319 320 320 320 319 316 313 311 308 307 305 303 301 300 298 296 294 292
262 254 287 306 312 56 102 110 133 124 276 247 166 147 156 155 171 229 244 261 268 262 279 296 276 268 299 315 314 325 330 329 335 336 330 327 326 327 327 329 331 328 326 328 329 330 328 325 328 330 329 328 327 325 326 327 327 326 324 324 323 322 321 321 320 318 319 320 320 320 319 317 316 313 312 311 308 307 307 306 304 302 300 298 295 293
283 290 295 323 339 335 322 316 320 319 296 284 146 148 165 167 169 204 269 257 261 273 277 276 271 279 297 306 312 322 326 330 335 332 330 330 328 326 326 329 331 327 326 328 328 328 327 327 328 329 328 328 326 325 325 325 324 324 324 325 323 321 321 321 320 320 321 320 319 318 317 316 315 315 314 312 310 309 308 307 304 302 300 298 296 294
272 268 259 268 286 293 295 294 302 310 297 287 269 189 175 169 177 204 262 259 278 298 281 261 266 287 299 304 313 321 326 331 332 330 331 330 327 326 326 328 328 325 325 327 326 326 329 330 329 327 326 328 326 324 325 325 324 323 324 324 324 322 321 321 322 323 321 318 317 316 316 317 317 317 315 313 311 310 307 306 304 302 300 298 296 294
275 262 242 253 254 259 274 281 287 294 282 277 282 258 185 162 171 191 222 246 278 301 279 269 282 293 296 301 312 322 330 332 328 328 329 326 323 324 325 325 325 325 326 325 325 328 331 332 330 327 325 327 326 322 323 325 325 323 322 322 323 323 321 322 324 322 320 318 317 317 317 318 318 317 316 313 312 310 308 307 305 303 302 300 297 294
291 280 127 211 266 268 272 272 273 274 268 267 274 270 244 196 181 194 223 240 252 257 261 280 295 293 290 298 309 319 329 328 324 324 323 320 321 323 324 324 326 328 326 324 327 331 332 333 330 327 326 328 326 323 324 325 324 324 322 321 321 321 322 323 322 321 320 319 318 318 319 319 319 317 316 314 313 312 310 308 307 305 303 300 298 295
280 270 94 342 284 283 275 265 259 257 261 265 265 266 265 243 212 213 233 242 244 248 258 276 287 286 285 293 303 315 323 320 320 321 318 317 322 324 323 324 329 330 325 324 329 331 333 333 328 326 328 328 325 324 325 326 324 324 322 320 320 321 322 323 321 321 320 319 319 320 320 320 319 317 316 315 314 313 311 310 309 306 304 301 298 296
259 7 69 22 287 290 274 240 239 249 259 269 271 267 264 258 242 235 242 247 248 252 260 274 283 283 282 292 305 315 316 313 316 319 317 319 324 323 322 328 331 328 322 324 329 330 333 333 327 325 329 327 323 322 324 325 324 323 320 319 320 320 322 323 321 320 321 320 320 321 321 321 320 318 317 316 315 314 313 311 309 306 304 302 300 297
226 280 17 280 298 299 209 189 267 282 273 269 271 264 248 242 240 232 231 234 238 253 270 278 278 279 291 308 312 310 310 312 316 318 317 320 325 325 328 332 330 324 321 324 328 330 333 330 326 326 328 326 321 319 322 324 323 322 320 319 319 320 322 322 321 320 320 319 320 322 322 321 319 318 318 317 316 315 313 311 309 307 305 302 301 300
257 287 308 326 302 296 240 295 305 307 295 266 251 238 226 224 232 238 239 240 241 251 272 276 268 280 301 311 308 307 312 315 315 318 318 319 322 326 331 330 325 321 320 323 326 329 330 327 324 324 326 325 320 318 319 321 322 321 319 317 319 321 322 321 321 321 320 319 321 322 322 321 319 319 318 317 316 314 312 311 308 307 306 303 302 299
159 274 296 329 283 290 312 314 301 290 292 321 101 169 206 222 238 247 254 258 256 256 260 264 272 284 296 303 304 305 308 311 313 312 311 314 320 322 322 323 320 319 320 322 325 327 326 325 324 323 324 323 319 316 317 319 320 319 317 318 319 321 322 322 321 320 319 320 322 322 322 321 319 318 317 316 316 313 311 310 308 307 306 304 302 299
163 230 260 195 260 281 308 316 302 294 323 112 137 177 207 235 249 257 265 264 259 259 259 263 271 278 286 295 299 299 301 307 308 304 304 322 3 319 315 318 319 320 321 323 325 325 324 325 325 323 324 323 320 318 317 318 319 317 316 320 320 318 322 323 320 320 320 321 322 322 321 320 319 318 316 316 315 313 311 310 308 308 307 304 302 299
192 233 265 259 244 269 308 321 298 305 310 157 168 196 188 232 250 265 275 262 245 249 256 257 264 271 283 291 291 295 303 306 303 300 307 78 31 308 312 317 319 320 322 323 323 323 324 326 326 324 324 322 321 321 320 319 319 316 316 321 319 318 322 322 319 319 320 321 322 321 321 320 318 316 316 315 314 313 312 311 309 308 307 306 303 300
213 226 275 270 231 259 305 286 266 288 292 232 170 194 185 197 221 257 286 277 252 244 245 249 262 271 279 284 288 298 304 302 303 303 132 122 323 319 314 313 315 317 318 320 320 319 322 325 325 324 323 321 321 324 322 320 319 315 316 320 320 319 322 321 318 319 320 321 321 320 320 319 317 316 315 314 313 312 311 311 309 309 309 308 305 305
211 244 296 293 247 221 296 295 289 289 289 230 138 164 152 118 94 136 277 284 266 222 216 233 257 270 278 286 296 305 301 295 302 320 129 335 334 331 311 309 312 314 318 320 320 321 325 326 326 325 323 320 322 325 322 320 318 314 315 320 320 319 321 320 318 320 320 320 320 319 318 317 316 315 314 312 311 310 310 309 308 308 309 308 305 307
205 260 272 266 266 249 272 293 291 279 291 30 129 145 132 111 117 149 265 282 208 179 199 223 248 268 286 298 306 315 313 303 306 336 19 347 337 327 314 313 314 316 320 324 323 324 326 326 327 327 323 321 324 325 323 319 316 313 315 318 317 318 320 318 317 319 318 318 318 317 316 316 314 312 311 309 310 309 308 308 306 306 308 306 303 307
193 229 213 226 252 243 238 265 267 264 281 116 133 141 128 124 140 197 301 311 165 186 205 219 249 277 293 301 308 311 303 298 305 322 339 336 327 322 319 317 316 319 323 324 325 325 326 327 329 327 324 324 325 325 322 319 315 311 314 316 313 315 319 316 316 317 316 315 316 315 315 314 312 310 309 308 309 308 308 307 306 306 309 309 308 310
185 208 210 234 258 240 226 252 268 269 276 123 129 135 133 139 168 275 312 342 157 199 205 210 255 285 290 289 296 287 279 290 299 308 319 322 319 317 317 315 315 317 320 322 325 327 326 327 327 325 324 325 326 324 321 317 312 310 313 313 310 312 316 315 314 315 314 314 315 314 314 314 311 310 310 310 310 309 307 307 307 307 308 310 312 315
181 189 204 230 249 238 230 249 271 276 252 121 125 134 144 173 269 299 310 159 192 262 251 231 254 277 274 269 273 273 282 292 294 297 305 309 310 311 312 312 313 314 317 320 324 328 328 325 324 324 322 324 326 324 320 314 310 309 310 309 308 311 315 314 313 313 312 314 314 313 314 314 313 312 313 313 313 310 308 310 311 311 311 312 314 317
169 194 228 217 206 229 245 240 276 296 157 134 132 138 176 214 267 324 326 297 276 267 266 260 257 255 255 262 267 271 281 288 288 290 296 298 302 305 304 308 312 312 315 319 322 327 327 321 321 322 320 322 325 323 318 313 307 307 308 307 307 312 314 313 313 312 312 312 312 313 316 316 314 314 314 313 312 310 309 310 311 312 314 315 314 315
179 206 259 248 182 201 248 230 246 325 149 157 165 200 216 219 242 313 309 294 285 254 246 260 260 243 237 251 264 271 276 279 281 284 287 289 294 297 298 305 310 308 309 315 319 324 324 318 319 318 315 319 325 322 317 311 304 304 306 306 309 313 314 313 313 313 312 311 312 315 317 318 317 317 315 314 313 312 310 309 311 313 314 315 316 318
196 198 280 298 217 221 261 259 269 349 153 178 204 240 246 243 250 263 270 276 279 263 234 242 257 245 227 235 253 264 267 270 274 277 280 283 286 290 294 300 303 302 304 309 313 317 319 315 314 313 311 316 322 320 314 308 303 303 304 307 311 314 312 312 314 313 311 311 313 316 317 318 318 318 316 314 313 312 311 311 314 316 316 319 321 322
207 169 109 280 251 269 273 261 257 266 252 221 222 236 247 256 255 233 238 254 259 249 230 230 246 242 220 223 241 254 259 264 271 272 272 274 276 281 288 293 296 296 297 303 308 311 313 310 308 307 308 313 318 318 311 305 301 301 304 307 312 313 312 312 313 312 311 311 313 315 316 315 315 316 316 316 314 311 311 312 314 316 317 320 323 323
194 160 194 240 248 282 274 248 236 253 259 250 241 237 234 240 237 220 225 240 243 238 230 221 223 223 218 223 237 250 258 262 265 267 268 265 266 274 282 285 289 291 291 295 301 305 306 304 301 303 306 309 313 314 308 303 300 300 304 306 309 311 312 311 311 311 311 312 312 313 312 310 312 315 317 317 316 315 314 313 314 314 315 318 322 324
160 153 216 241 232 235 258 270 274 273 269 262 255 247 235 230 224 213 218 231 231 226 221 209 205 209 214 222 231 244 253 254 254 259 261 258 258 264 271 274 277 282 284 287 293 297 297 294 293 297 300 303 308 309 304 300 299 301 303 305 309 311 310 310 311 310 310 311 310 308 307 308 311 315 316 315 315 315 314 313 314 312 309 309 311 316
105 169 226 244 248 253 264 271 274 275 272 260 245 240 239 239 226 213 213 217 216 216 213 205 203 208 218 226 227 235 246 248 247 250 251 250 252 254 259 265 269 272 274 278 284 286 286 285 286 290 293 297 303 304 299 296 297 302 304 305 308 311 310 310 311 310 309 310 307 305 307 309 310 311 313 313 314 313 311 310 307 303 302 303 304 307
146 225 227 224 261 264 259 254 256 275 283 278 258 233 228 225 219 214 211 210 212 212 209 208 210 211 218 226 224 225 238 243 241 240 238 238 245 251 253 257 261 264 266 269 275 278 277 276 278 282 288 294 297 296 295 295 296 301 304 304 307 310 310 311 313 312 310 309 307 307 309 309 309 310 310 312 315 316 317 319 317 308 300 301 305 310
199 224 204 194 235 256 262 259 238 257 279 295 334 206 210 199 205 217 216 212 214 213 207 210 215 212 213 219 218 218 230 238 234 231 232 234 240 245 248 248 250 254 257 261 267 272 272 272 274 277 282 288 291 291 292 293 295 298 301 302 304 307 308 311 312 311 309 308 307 308 308 307 307 308 308 310 314 317 318 323 329 330 320 307 312 319